Williston, ND

3:32 PM CDT on October 16, 2019 (GMT -0500)
Sloulin International

Weather History for KISN - August, 2019

Change the Weather History Date:

Saturday, August 10, 2019

  Actual Average Record
Temperature  
Mean Temperature 70 °F 71 °F  
Max Temperature 79 °F 86 °F 103 °F (1936)
Min Temperature 60 °F 56 °F 37 °F (1903)
Degree Days  
Heating Degree Days 0 1  
Month to date heating degree days 1 10  
Since 1 June heating degree days 86 154  
Since 1 July heating degree days 16 34  
Cooling Degree Days 5 7  
Month to date cooling degree days 77 70  
Year to date cooling degree days 321 333  
Since 1 June cooling degree days 315 320  
Growing Degree Days 20 (Base 50)    
Moisture  
Dew Point 62 °F    
Average Humidity 77    
Maximum Humidity 93    
Minimum Humidity 60    
Precipitation  
Precipitation 0.65 in 0.05 in 0.92 in (1962)
Month to date precipitation 1.20 0.49  
Year to date precipitation 10.86 10.16  
Sea Level Pressure  
Sea Level Pressure 29.95 in    
Wind  
Wind Speed 10 mph (NNE)    
Max Wind Speed 20 mph    
Max Gust Speed 38 mph    
Visibility 8 miles    
Events Fog , Rain , Thunderstorm    
T = Trace of Precipitation, MM = Missing Value Source: NWS Daily Summary

Daily Weather History Graph

Daily Weather History Graph

Search for Another Location

Airport or City:

Astronomy

Aug. 10, 2019 Rise Set
Actual Time 6:41 AM CDT 9:17 PM CDT
Civil Twilight 6:06 AM CDT 9:52 PM CDT
Nautical Twilight 5:22 AM CDT 10:36 PM CDT
Astronomical Twilight 4:30 AM CDT 11:27 PM CDT
Moon 6:11 PM CDT (8/10) 2:12 AM CDT (8/10)
Length of Visible Light 15h 45m
Length of Day
14h 35m
Waxing Gibbous, 79% of the Moon is Illuminated
Aug 10
Waxing Gibbous
Aug 15
Full
Aug 23
Last Quarter
Aug 30
New
Sep 5
First Quarter

Hourly Weather History & Observations

Time (CDT) Temp. Dew Point Humidity Pressure Visibility Wind Dir Wind Speed Gust Speed Precip Events Conditions
12:52 AM 69.1 °F 64.0 °F 84% 29.84 in 10.0 mi ENE 3.5 mph - N/A   Clear
1:52 AM 69.1 °F 64.0 °F 84% 29.83 in 10.0 mi East 3.5 mph - N/A   Clear
2:52 AM 70.0 °F 64.9 °F 84% 29.83 in 10.0 mi SE 5.8 mph - N/A   Clear
3:52 AM 68.0 °F 64.0 °F 87% 29.84 in 10.0 mi Calm Calm - N/A   Scattered Clouds
4:52 AM 70.0 °F 64.9 °F 84% 29.84 in 10.0 mi North 3.5 mph - N/A   Clear
5:52 AM 68.0 °F 64.0 °F 87% 29.84 in 10.0 mi NE 6.9 mph - N/A   Partly Cloudy
6:23 AM 68.0 °F 64.9 °F 90% 29.88 in 10.0 mi NE 8.1 mph - N/A   Mostly Cloudy
6:34 AM 68.0 °F 64.0 °F 87% 29.88 in 10.0 mi NE 6.9 mph - N/A   Scattered Clouds
6:52 AM 69.1 °F 64.9 °F 87% 29.84 in 10.0 mi East 9.2 mph - N/A   Clear
7:49 AM 69.8 °F 64.4 °F 83% 29.89 in 10.0 mi SE 6.9 mph - N/A   Overcast
7:52 AM 69.1 °F 64.9 °F 87% 29.86 in 10.0 mi SE 8.1 mph - N/A   Overcast
8:16 AM 70.0 °F 64.0 °F 81% 29.87 in 10.0 mi ESE 4.6 mph - 0.00 in Rain Light Rain
8:36 AM 68.0 °F 66.0 °F 93% 29.93 in - NW 15.0 mph - 0.12 in Rain , Thunderstorm Heavy Thunderstorms and Rain
8:42 AM 66.9 °F 64.9 °F 93% 29.93 in 0.5 mi North 12.7 mph - 0.40 in Fog , Rain , Thunderstorm Heavy Rain
8:46 AM 66.9 °F 64.9 °F 93% 29.93 in 1.0 mi North 10.4 mph - 0.41 in Rain Rain
8:50 AM 66.2 °F 64.4 °F 94% 29.94 in 3.0 mi North 13.8 mph - 0.42 in Rain Light Rain
8:52 AM 64.9 °F 63.0 °F 93% 29.91 in 4.0 mi North 12.7 mph - 0.42 in Rain Light Rain
8:57 AM 64.0 °F 63.0 °F 96% 29.94 in 4.0 mi North 12.7 mph - 0.01 in Rain , Thunderstorm Rain
9:03 AM 64.0 °F 63.0 °F 96% 29.97 in 4.0 mi NW 15.0 mph - 0.01 in Rain , Thunderstorm Light Rain
9:08 AM 64.0 °F 63.0 °F 96% 29.98 in 2.5 mi NW 17.3 mph 23.0 mph 0.03 in Rain Heavy Rain
9:14 AM 64.0 °F 62.1 °F 93% 29.97 in 3.0 mi NNW 12.7 mph 26.5 mph 0.05 in Rain Rain
9:20 AM 64.0 °F 62.1 °F 93% 29.96 in 2.5 mi North 15.0 mph - 0.07 in Rain Heavy Rain
9:29 AM 64.0 °F 62.1 °F 93% 29.95 in 4.0 mi North 18.4 mph 28.8 mph 0.14 in Rain , Thunderstorm Light Rain
9:52 AM 64.0 °F 62.1 °F 93% 29.91 in 10.0 mi NNE 13.8 mph - 0.14 in Rain Light Rain
10:08 AM 63.0 °F 62.1 °F 97% 29.93 in 2.5 mi NE 11.5 mph - 0.08 in Rain Rain
10:11 AM 64.0 °F 62.1 °F 93% 29.93 in 3.0 mi NE 9.2 mph - 0.08 in Rain Light Rain
10:18 AM 64.0 °F 62.1 °F 93% 29.94 in 10.0 mi NE 12.7 mph 19.6 mph 0.08 in Rain , Thunderstorm Light Rain
10:33 AM 64.9 °F 62.1 °F 90% 29.94 in 10.0 mi NNE 10.4 mph - 0.08 in Rain Light Rain
10:52 AM 64.9 °F 61.0 °F 87% 29.93 in 10.0 mi NNE 15.0 mph - 0.09 in   Mostly Cloudy
11:52 AM 72.0 °F 62.1 °F 71% 29.93 in 10.0 mi NE 9.2 mph - N/A   Clear
12:52 PM 75.0 °F 63.0 °F 66% 29.93 in 10.0 mi Variable 3.5 mph - N/A   Clear
1:52 PM 77.0 °F 63.0 °F 62% 29.93 in 10.0 mi Variable 3.5 mph - N/A   Clear
2:14 PM 78.1 °F 64.0 °F 62% 29.96 in 10.0 mi Variable 3.5 mph - N/A   Mostly Cloudy
2:20 PM 77.0 °F 63.0 °F 62% 29.96 in 10.0 mi NE 5.8 mph - N/A   Scattered Clouds
2:28 PM 78.1 °F 63.0 °F 60% 29.96 in 10.0 mi Calm Calm - N/A   Mostly Cloudy
2:52 PM 75.0 °F 64.0 °F 69% 29.94 in 10.0 mi North 16.1 mph 21.9 mph N/A   Overcast
3:04 PM 73.9 °F 64.0 °F 71% 29.96 in 10.0 mi North 17.3 mph 23.0 mph N/A   Overcast
3:52 PM 73.9 °F 63.0 °F 68% 29.95 in 10.0 mi North 17.3 mph 24.2 mph N/A   Mostly Cloudy
4:33 PM 70.0 °F 62.1 °F 76% 29.98 in 10.0 mi North 17.3 mph 33.4 mph N/A   Mostly Cloudy
4:52 PM 70.0 °F 62.1 °F 76% 29.97 in 9.0 mi North 17.3 mph - N/A   Overcast
5:52 PM 66.9 °F 61.0 °F 81% 30.01 in 10.0 mi NNE 15.0 mph 24.2 mph N/A   Overcast
6:52 PM 68.0 °F 60.1 °F 76% 30.00 in 10.0 mi NNE 17.3 mph - N/A   Mostly Cloudy
7:32 PM 66.0 °F 59.0 °F 78% 30.02 in 10.0 mi NNE 17.3 mph - N/A   Overcast
7:52 PM 66.0 °F 60.1 °F 81% 30.01 in 10.0 mi NNE 11.5 mph - N/A   Overcast
8:33 PM 64.9 °F 59.0 °F 81% 30.03 in 10.0 mi NNE 16.1 mph - N/A   Overcast
8:52 PM 64.0 °F 57.9 °F 80% 30.02 in 10.0 mi NNE 15.0 mph 23.0 mph N/A   Overcast
9:06 PM 64.0 °F 57.9 °F 80% 30.04 in 10.0 mi NNE 10.4 mph 21.9 mph N/A   Overcast
9:43 PM 64.0 °F 57.9 °F 80% 30.06 in 10.0 mi NNE 11.5 mph - N/A   Overcast
9:52 PM 64.0 °F 57.9 °F 80% 30.05 in 10.0 mi NNE 11.5 mph - N/A   Overcast
10:25 PM 63.0 °F 57.9 °F 84% 30.07 in 10.0 mi NE 8.1 mph - N/A   Scattered Clouds
10:52 PM 63.0 °F 57.9 °F 84% 30.08 in 10.0 mi NE 5.8 mph - N/A   Mostly Cloudy
11:07 PM 62.1 °F 57.9 °F 86% 30.08 in 10.0 mi NNE 6.9 mph - N/A   Scattered Clouds
11:12 PM 62.1 °F 57.9 °F 86% 30.08 in 10.0 mi NNE 6.9 mph - N/A   Mostly Cloudy
11:25 PM 62.1 °F 59.0 °F 90% 30.08 in 10.0 mi NNE 6.9 mph - N/A   Scattered Clouds
11:38 PM 62.1 °F 59.0 °F 90% 30.08 in 10.0 mi NNE 6.9 mph - N/A   Mostly Cloudy
11:52 PM 63.0 °F 59.0 °F 87% 30.06 in 10.0 mi NNE 8.1 mph - N/A   Mostly Cloudy